FW4701 Weather Reports


Display with metric or nautical units.
time (UTC)temp
F
wind
direction
speed
MPH
gust
MPH
rain 1hr
in
rain 24hr
in
rain mn
in
humidity
%
barometer
mb
20260502170507 50 279 2.0 10.0 0.00 0.01 0.00 41 1019.6
20260502164003 49 339 3.0 9.0 0.00 0.01 0.00 44 1019.8
20260502163506 49 303 4.0 13.0 0.00 0.01 0.00 42 1019.6
20260502163037 68 51 1.0 7.0 0.00 0.02 0.00 39 1024.2
20260502163024 49 281 6.0 13.0 0.00 0.01 0.00 43 1019.8
20260502162509 49 245 3.0 8.0 0.00 0.01 0.00 44 1019.8
20260502162007 49 270 3.0 7.0 0.00 0.01 0.00 44 1019.9
20260502161530 68 304 3.0 8.0 0.00 0.02 0.00 38 1024.3
20260502161525 49 59 1.0 9.0 0.00 0.01 0.00 43 1020.0
20260502161006 49 298 3.0 9.0 0.00 0.01 0.00 44 1020.0
20260502160509 48 37 0.0 8.0 0.00 0.01 0.00 46 1019.9
20260502152005 48 273 1.0 7.0 0.00 0.01 0.00 48 1020.3
20260502151524 47 346 2.0 7.0 0.00 0.01 0.00 48 1020.3
20260502151510 64 290 5.0 9.0 0.00 0.04 0.00 16 1024.0
20260502151006 47 304 3.0 7.0 0.00 0.01 0.00 47 1020.2
20260502150503 47 277 1.0 8.0 0.00 0.01 0.00 49 1020.2
20260502130505 41 282 1.0 3.0 0.00 0.01 0.00 83 1020.2
20260502123504 37 232 1.0 4.0 0.00 0.01 0.00 91 1020.3
20260502123017 46 272 0.0 1.0 0.00 0.09 0.00 45 1022.9
20260502123012 37 259 2.0 4.0 0.00 0.01 0.00 92 1020.2
20260502122504 37 246 1.0 3.0 0.00 0.01 0.00 92 1020.2
20260502122006 37 261 0.0 2.0 0.00 0.01 0.00 93 1020.2
20260502121515 37 234 0.0 1.0 0.00 0.01 0.00 93 1020.2
20260502121008 36 234 0.0 1.0 0.00 0.01 0.00 93 1020.1
20260502120507 37 234 0.0 1.0 0.00 0.01 0.00 93 1020.1
20260502115506 37 163 0.0 0.0 0.00 0.01 0.00 95 1020.0
20260502115007 36 163 0.0 0.0 0.00 0.01 0.00 95 1020.0
20260502114523 35 163 0.0 0.0 0.00 0.01 0.00 95 1019.9
20260502114504 0 0.0 0.0 0.00 0.09 0.00 1022.4
20260502114007 34 163 0.0 0.0 0.00 0.01 0.00 95 1019.9
20260502113507 33 163 0.0 0.0 0.00 0.01 0.00 94 1019.8
20260502113115 0 0.0 0.0 0.00 0.09 0.00 1022.0
20260502113033 33 163 0.0 0.0 0.00 0.01 0.00 94 1019.8
20260502112503 32 163 0.0 0.0 0.00 0.01 0.00 94 1019.8
20260502112003 32 163 0.0 0.0 0.00 0.01 0.00 93 1019.7
20260502111602 0 275 0.0 0.0 0.00 0.09 0.00 1021.7
20260502111514 32 163 0.0 0.0 0.00 0.01 0.00 93 1019.7
20260502111004 32 163 0.0 0.0 0.00 0.01 0.00 93 1019.7
20260502110505 32 163 0.0 0.0 0.00 0.01 0.00 93 1019.6
20260502110051 44 272 0.0 0.0 0.00 0.09 0.00 44 1021.5
20260502110023 32 163 0.0 0.0 0.00 0.01 0.00 93 1019.6
20260502105505 31 163 0.0 0.0 0.00 0.01 0.00 93 1019.6
20260502105005 31 163 0.0 0.0 0.00 0.01 0.00 93 1019.6
20260502104545 45 272 0.0 0.0 0.00 0.09 0.00 45 1021.2
20260502104522 32 163 0.0 0.0 0.00 0.01 0.00 93 1019.6
20260502104008 32 163 0.0 0.0 0.00 0.01 0.00 93 1019.5
20260502103508 32 163 0.0 0.0 0.00 0.01 0.00 93 1019.5
20260502103104 45 272 0.0 0.0 0.00 0.09 0.00 45 1021.0
20260502103023 32 163 0.0 0.0 0.00 0.01 0.00 93 1019.5
20260502102507 32 163 0.0 0.0 0.00 0.01 0.00 93 1019.5
20260502102008 32 163 0.0 0.0 0.00 0.01 0.00 93 1019.5
20260502101548 46 272 0.0 0.0 0.00 0.09 0.00 45 1020.9
20260502101527 32 163 0.0 0.0 0.00 0.01 0.00 93 1019.5
20260502101011 32 163 0.0 0.0 0.00 0.01 0.00 93 1019.5
20260502100504 32 163 0.0 0.0 0.00 0.01 0.00 93 1019.5
20260502091529 46 257 0.0 1.0 0.00 0.10 0.00 44 1020.8
20260502091526 32 163 0.0 0.0 0.00 0.03 0.00 92 1019.4
20260502091015 32 163 0.0 0.0 0.00 0.03 0.00 92 1019.4
20260502090507 32 163 0.0 0.0 0.00 0.03 0.00 92 1019.3
20260502071522 34 74 0.0 1.0 0.00 0.04 0.00 91 1019.3
20260502071507 48 56 0.0 0.0 0.00 0.10 0.00 41 1020.8
20260502071007 34 74 0.0 0.0 0.00 0.04 0.00 91 1019.3
20260502070507 34 74 0.0 0.0 0.00 0.04 0.00 91 1019.4
20260502070026 34 74 0.0 0.0 0.00 0.04 0.00 90 1019.4
20260502070003 48 56 0.0 0.0 0.00 0.10 0.00 39 1020.9
20260502065505 34 74 0.0 0.0 0.00 0.04 0.00 90 1019.5
20260502065011 34 74 0.0 0.0 0.00 0.04 0.00 90 1019.5
20260502064601 48 56 0.0 0.0 0.00 0.10 0.00 38 1020.9
20260502064531 34 74 0.0 0.0 0.00 0.04 0.00 90 1019.5
20260502064016 34 74 0.0 0.0 0.00 0.04 0.00 90 1019.5
20260502063505 34 74 0.0 0.0 0.00 0.04 0.00 90 1019.6
20260502063121 49 56 0.0 0.0 0.00 0.10 0.00 39 1020.8
20260502063018 34 74 0.0 0.0 0.00 0.04 0.00 90 1019.7
20260502062507 34 74 0.0 0.0 0.00 0.04 0.00 90 1019.7
20260502062009 34 74 0.0 0.0 0.00 0.04 0.00 90 1019.7
20260502061554 50 56 0.0 0.0 0.00 0.10 0.00 39 1020.8
20260502061519 34 74 0.0 0.0 0.00 0.04 0.00 89 1019.7
20260502061003 34 74 0.0 0.0 0.00 0.04 0.00 89 1019.7
20260502060503 34 74 0.0 0.0 0.00 0.04 0.00 89 1019.8
20260502060055 50 56 0.0 0.0 0.00 0.10 0.00 39 1020.8
20260502060004 34 74 0.0 0.0 0.00 0.04 0.00 89 1019.7
20260502055504 35 74 0.0 0.0 0.00 0.04 0.00 89 1019.8
20260502055004 35 74 0.0 0.0 0.00 0.04 0.00 89 1019.8
20260502054557 50 56 0.0 0.0 0.00 0.10 0.00 38 1020.9
20260502054507 35 74 0.0 0.0 0.00 0.04 0.00 88 1019.8
20260502054004 35 74 0.0 0.0 0.00 0.04 0.00 88 1019.8
20260502053503 35 74 0.0 0.0 0.00 0.04 0.00 88 1019.7
20260502053049 50 56 0.0 0.0 0.00 0.10 0.00 37 1020.9
20260502053012 35 74 0.0 0.0 0.00 0.04 0.00 87 1019.8
20260502052507 35 74 0.0 0.0 0.00 0.04 0.00 87 1019.8
20260502052004 35 74 0.0 0.0 0.00 0.05 0.00 87 1019.8
20260502051541 51 56 0.0 0.0 0.00 0.10 0.00 38 1020.8
20260502051519 35 74 0.0 0.0 0.00 0.05 0.00 87 1019.8
20260502051007 35 74 0.0 0.0 0.00 0.05 0.00 87 1019.7
20260502050509 35 74 0.0 1.0 0.00 0.05 0.00 87 1019.8
20260502050038 51 56 0.0 0.0 0.00 0.10 0.00 39 1020.9
20260502050025 35 74 0.0 1.0 0.00 0.06 0.00 86 1019.8
20260502045503 35 74 0.0 0.0 0.00 0.07 0.06 86 1019.8
20260502045009 36 74 0.0 0.0 0.00 0.08 0.06 86 1019.8
20260502044535 51 56 0.0 0.0 0.00 0.10 0.10 38 1020.8
20260502044503 36 74 0.0 0.0 0.00 0.09 0.06 85 1019.8
20260502044003 36 74 0.0 0.0 0.00 0.09 0.06 85 1019.8
20260502043505 36 74 0.0 0.0 0.00 0.10 0.06 85 1019.8
20260502043031 52 56 0.0 0.0 0.00 0.10 0.10 38 1020.7
20260502043010 36 74 0.0 0.0 0.00 0.10 0.06 85 1019.8
20260502042507 36 74 0.0 0.0 0.00 0.11 0.06 85 1019.7
20260502042005 36 74 0.0 0.0 0.00 0.11 0.06 84 1019.7
20260502041532 53 56 0.0 0.0 0.00 0.10 0.10 38 1020.7
20260502041518 36 74 0.0 0.0 0.00 0.12 0.06 84 1019.7
20260502041003 37 74 0.0 0.0 0.00 0.12 0.06 83 1019.7
20260502040503 37 74 0.0 0.0 0.00 0.12 0.06 83 1019.7
20260502040023 53 56 0.0 0.0 0.00 0.10 0.10 39 1020.7
20260502040017 37 74 0.0 0.0 0.00 0.12 0.06 82 1019.7
20260502035507 37 74 0.0 0.0 0.00 0.12 0.06 82 1019.6
20260502035007 37 74 0.0 0.0 0.00 0.12 0.06 81 1019.6
20260502034522 37 74 0.0 0.0 0.00 0.12 0.06 80 1019.6
20260502034003 37 74 0.0 0.0 0.00 0.12 0.06 80 1019.5
20260502033503 37 74 0.0 0.0 0.00 0.12 0.06 79 1019.5
20260502033018 53 56 0.0 0.0 0.00 0.10 0.10 38 1020.3
20260502033012 37 74 0.0 0.0 0.00 0.12 0.06 79 1019.6
20260502032506 38 74 0.0 0.0 0.00 0.12 0.06 78 1019.5
20260502032005 38 74 0.0 0.0 0.00 0.12 0.06 78 1019.5
20260502031515 54 56 0.0 0.0 0.00 0.10 0.10 38 1019.8
20260502031511 38 74 0.0 0.0 0.00 0.12 0.06 77 1019.5
20260502031004 38 74 0.0 0.0 0.00 0.12 0.06 76 1019.5
20260502030504 39 74 0.0 0.0 0.00 0.12 0.06 76 1019.4
20260502030022 39 74 0.0 1.0 0.00 0.12 0.06 75 1019.4
20260502030014 54 56 0.0 0.0 0.00 0.10 0.10 39 1019.9
20260502025504 39 74 0.0 1.0 0.00 0.12 0.06 75 1019.4
20260502025004 39 74 0.0 1.0 0.00 0.12 0.06 75 1019.4
20260502024518 39 74 0.0 1.0 0.00 0.12 0.06 74 1019.3
20260502024512 53 56 0.0 0.0 0.00 0.10 0.10 39 1019.9
20260502024009 39 74 0.0 0.0 0.00 0.12 0.06 74 1019.3
20260502023508 39 74 0.0 0.0 0.00 0.12 0.06 73 1019.2
20260502023032 39 74 0.0 0.0 0.00 0.12 0.06 73 1019.2
20260502023009 53 56 0.0 0.0 0.00 0.10 0.10 39 1019.9
20260502022503 39 74 0.0 1.0 0.00 0.13 0.06 72 1019.3
20260502022003 39 74 0.0 3.0 0.00 0.13 0.06 72 1019.3
20260502021509 39 72 0.0 3.0 0.00 0.14 0.06 72 1019.2
20260502021507 53 56 0.0 0.0 0.00 0.10 0.10 38 1019.8
20260502021004 39 69 0.0 3.0 0.00 0.15 0.06 74 1019.1
20260502020504 40 65 0.0 3.0 0.00 0.16 0.06 75 1019.0
20260502020019 40 90 0.0 2.0 0.00 0.17 0.06 76 1019.0
20260502020004 53 56 0.0 0.0 0.00 0.10 0.10 36 1019.5
20260502015504 40 120 0.0 1.0 0.00 0.18 0.06 76 1019.0
20260502015005 39 85 0.0 1.0 0.00 0.18 0.06 76 1019.1
20260502014601 54 56 0.0 0.0 0.00 0.10 0.10 34 1019.3
20260502014516 39 81 0.0 1.0 0.00 0.19 0.06 76 1018.9
20260502014008 39 81 0.0 3.0 0.00 0.19 0.06 77 1018.9
20260502013504 39 140 0.0 4.0 0.00 0.20 0.06 76 1018.8
20260502013100 55 56 0.0 0.0 0.00 0.10 0.10 29 1018.9
20260502013024 39 50 0.0 4.0 0.00 0.20 0.06 76 1018.7
20260502012507 39 61 0.0 7.0 0.00 0.20 0.06 76 1018.6
20260502012007 39 67 1.0 7.0 0.00 0.20 0.06 75 1018.7
20260502011553 56 56 0.0 0.0 0.00 0.10 0.10 26 1018.5
20260502011526 40 90 0.0 4.0 0.00 0.20 0.06 75 1018.6
20260502011004 40 53 1.0 5.0 0.00 0.20 0.06 74 1018.4
20260502010502 40 61 1.0 8.0 0.00 0.20 0.06 73 1018.4
20260502010055 58 56 0.0 0.0 0.00 0.10 0.10 23 1018.4
20260502010009 40 59 3.0 8.0 0.00 0.20 0.06 71 1018.4
20260502005504 41 33 2.0 5.0 0.00 0.20 0.06 69 1018.4
20260502005003 41 45 2.0 5.0 0.00 0.20 0.06 68 1018.4
20260502004547 59 49 0.0 2.0 0.00 0.11 0.10 19 1018.1
20260502004515 41 65 2.0 5.0 0.00 0.20 0.06 68 1018.4
20260502004004 42 348 0.0 4.0 0.00 0.20 0.06 69 1018.3
20260502003505 42 81 1.0 5.0 0.00 0.20 0.06 69 1018.3
20260502003043 59 55 1.0 6.0 0.00 0.11 0.10 19 1017.9
20260502003020 42 51 1.0 5.0 0.00 0.20 0.06 68 1018.3
20260502002510 42 34 1.0 5.0 0.00 0.20 0.06 69 1018.3
20260502002011 42 352 2.0 5.0 0.00 0.20 0.06 69 1018.2
20260502001540 59 52 1.0 7.0 0.00 0.11 0.10 21 1017.5
20260502001526 42 55 1.0 6.0 0.00 0.20 0.06 69 1018.1
20260502001009 42 55 2.0 8.0 0.00 0.20 0.06 69 1018.2
20260502000510 42 61 3.0 8.0 0.00 0.20 0.06 69 1018.1
20260502000039 59 58 1.0 8.0 0.00 0.11 0.10 23 1017.1
20260502000027 43 54 2.0 8.0 0.00 0.20 0.06 69 1018.1
20260501235508 43 90 2.0 8.0 0.00 0.20 0.06 68 1018.1
20260501235003 43 63 2.0 8.0 0.00 0.21 0.06 69 1018.1
20260501234537 59 63 2.0 9.0 0.00 0.12 0.10 23 1016.7
20260501234513 43 93 4.0 8.0 0.00 0.22 0.06 69 1018.1
20260501234005 44 55 3.0 7.0 0.00 0.22 0.06 69 1017.9
20260501233506 44 344 3.0 6.0 0.00 0.22 0.06 68 1017.9
20260501233042 59 52 2.0 5.0 0.00 0.12 0.10 22 1016.5
20260501233018 44 63 2.0 5.0 0.00 0.22 0.06 69 1017.9
20260501232510 44 65 2.0 5.0 0.00 0.22 0.06 69 1017.7
20260501232007 44 63 1.0 5.0 0.00 0.22 0.06 69 1017.8
20260501231530 59 49 0.0 6.0 0.00 0.12 0.10 23 1016.4
20260501231522 44 64 3.0 5.0 0.00 0.23 0.06 68 1017.9
20260501231005 44 49 2.0 5.0 0.00 0.24 0.06 69 1017.9
20260501230514 44 53 3.0 5.0 0.00 0.24 0.06 68 1017.8
20260501230029 59 67 1.0 5.0 0.00 0.12 0.10 23 1016.1
20260501230026 45 38 2.0 6.0 0.00 0.24 0.06 68 1018.0
20260501225506 45 63 2.0 6.0 0.00 0.24 0.06 68 1018.0
20260501225012 45 46 3.0 5.0 0.00 0.24 0.06 68 1017.9
20260501224628 59 3 0.0 6.0 0.00 0.12 0.10 23 1016.4
20260501224509 45 78 1.0 4.0 0.00 0.24 0.06 68 1017.9
20260501224003 45 94 2.0 9.0 0.00 0.24 0.06 68 1017.9
20260501223503 45 111 0.0 9.0 0.00 0.24 0.06 68 1017.8
20260501223035 59 325 0.0 5.0 0.00 0.12 0.10 25 1016.4
20260501223015 45 59 2.0 5.0 0.00 0.24 0.06 69 1017.9
20260501222504 45 85 1.0 6.0 0.00 0.24 0.06 70 1017.8
20260501222005 45 71 2.0 6.0 0.00 0.24 0.06 71 1017.8
20260501221530 59 330 0.0 4.0 0.00 0.12 0.10 26 1016.5
20260501221519 45 38 1.0 7.0 0.00 0.24 0.06 71 1017.9
20260501221010 45 93 2.0 7.0 0.00 0.25 0.06 72 1017.8
20260501220509 45 76 2.0 5.0 0.00 0.25 0.06 72 1017.8
20260501220023 45 71 1.0 7.0 0.00 0.25 0.06 72 1018.0
20260501220021 59 330 2.0 6.0 0.00 0.12 0.10 24 1016.4
20260501215511 45 93 3.0 7.0 0.00 0.26 0.06 71 1017.9
20260501215008 45 67 1.0 4.0 0.00 0.26 0.06 72 1017.9
20260501214527 59 336 3.0 7.0 0.00 0.12 0.10 22 1016.6
20260501214524 45 91 1.0 4.0 0.00 0.26 0.06 72 1018.0
20260501214009 45 76 1.0 5.0 0.00 0.26 0.06 72 1017.9
20260501213510 45 36 1.0 5.0 0.00 0.26 0.06 73 1017.8
20260501213016 59 313 3.0 11.0 0.00 0.12 0.10 21 1016.4
20260501213011 45 17 2.0 5.0 0.00 0.27 0.06 72 1017.8
20260501212503 45 50 1.0 5.0 0.01 0.27 0.06 73 1017.7
20260501212004 45 37 1.0 4.0 0.01 0.27 0.06 73 1017.7
20260501211518 45 88 2.0 6.0 0.01 0.27 0.06 74 1017.7
20260501211513 59 326 5.0 11.0 0.00 0.12 0.10 22 1016.5
20260501211006 45 42 1.0 6.0 0.01 0.27 0.06 74 1017.7
20260501210505 45 60 1.0 4.0 0.01 0.27 0.06 75 1017.8
20260501210024 45 60 1.0 7.0 0.01 0.27 0.06 74 1017.7
20260501210011 59 359 4.0 10.0 0.00 0.12 0.10 23 1016.5
20260501205511 45 90 3.0 7.0 0.01 0.27 0.06 74 1017.8
20260501205007 45 78 2.0 7.0 0.01 0.27 0.06 74 1017.8
20260501204507 59 329 5.0 12.0 0.01 0.12 0.10 29 1016.5
20260501204505 45 84 2.0 4.0 0.01 0.27 0.06 74 1017.5
20260501204003 45 79 1.0 4.0 0.01 0.27 0.06 73 1017.6
20260501203503 45 32 1.0 6.0 0.01 0.27 0.06 73 1017.5
20260501203009 45 91 1.0 6.0 0.01 0.27 0.06 72 1017.6
20260501203001 58 342 5.0 13.0 0.01 0.12 0.10 33 1016.8
20260501202504 45 70 2.0 7.0 0.00 0.26 0.05 71 1017.6
20260501202004 45 68 2.0 7.0 0.00 0.26 0.05 70 1017.6
20260501201559 56 355 3.0 12.0 0.02 0.12 0.10 38 1016.9
20260501201515 45 55 3.0 7.0 0.00 0.26 0.05 68 1017.6
20260501201009 46 62 3.0 6.0 0.00 0.26 0.05 67 1017.7
20260501200513 46 40 2.0 6.0 0.00 0.26 0.05 66 1017.5
20260501200054 55 344 4.0 11.0 0.02 0.12 0.10 41 1017.0
20260501200018 46 67 2.0 5.0 0.00 0.26 0.05 66 1017.4
20260501195504 46 75 1.0 5.0 0.00 0.26 0.05 67 1017.4
20260501195008 46 74 2.0 5.0 0.00 0.26 0.05 67 1017.5
20260501194551 55 347 3.0 9.0 0.01 0.11 0.09 44 1017.1
20260501194526 46 49 2.0 5.0 0.00 0.26 0.05 66 1017.6
20260501194008 47 71 1.0 10.0 0.00 0.26 0.05 68 1017.4
20260501193506 46 42 2.0 10.0 0.00 0.26 0.05 66 1017.5
20260501193049 56 35 0.0 4.0 0.01 0.11 0.09 46 1017.5
20260501193013 46 57 3.0 8.0 0.00 0.26 0.05 67 1017.5
20260501192504 46 67 2.0 6.0 0.00 0.26 0.05 68 1017.3
20260501192004 46 88 2.0 6.0 0.00 0.26 0.05 67 1017.3
20260501191545 55 75 0.0 3.0 0.00 0.10 0.08 46 1017.7
20260501191510 46 59 2.0 9.0 0.00 0.26 0.05 67 1017.3
20260501191004 46 330 1.0 9.0 0.00 0.26 0.05 66 1017.3
20260501190508 46 46 4.0 9.0 0.00 0.26 0.05 67 1017.2
20260501190044 55 65 1.0 5.0 0.00 0.10 0.08 46 1017.2
20260501190025 46 43 3.0 9.0 0.00 0.26 0.05 67 1017.2
20260501185504 46 30 2.0 9.0 0.00 0.26 0.05 68 1017.3
20260501185005 46 58 2.0 9.0 0.00 0.26 0.05 69 1017.1
20260501184541 54 72 3.0 6.0 0.00 0.10 0.08 46 1016.7
20260501184522 46 62 3.0 8.0 0.00 0.26 0.05 68 1017.2
20260501184008 47 62 2.0 8.0 0.00 0.26 0.05 67 1016.8
20260501183509 47 74 3.0 10.0 0.00 0.26 0.05 67 1016.9
20260501183137 54 47 2.0 10.0 0.00 0.10 0.08 45 1016.5
20260501183024 47 318 3.0 10.0 0.00 0.26 0.05 66 1016.8
20260501182507 47 51 3.0 8.0 0.00 0.26 0.05 64 1016.8
20260501182002 48 51 3.0 9.0 0.00 0.26 0.05 61 1016.7
20260501181535 54 44 2.0 10.0 0.00 0.10 0.08 45 1017.1
20260501181507 48 57 4.0 10.0 0.00 0.26 0.05 51 1016.7
20260501181004 48 248 3.0 11.0 0.00 0.26 0.05 50 1016.6
20260501180504 48 286 5.0 11.0 0.00 0.26 0.05 50 1016.7
20260501180035 55 359 0.0 5.0 0.00 0.10 0.08 45 1017.4
20260501180012 48 264 3.0 11.0 0.00 0.26 0.05 51 1016.7
20260501175505 48 331 2.0 13.0 0.00 0.26 0.05 52 1016.6
20260501175005 48 344 1.0 13.0 0.00 0.26 0.05 52 1016.5
20260501174533 54 8 3.0 9.0 0.00 0.10 0.08 45 1017.2
20260501174521 48 290 4.0 11.0 0.00 0.26 0.05 51 1016.6
20260501174004 48 316 3.0 11.0 0.00 0.26 0.05 51 1016.5
20260501173505 49 352 2.0 9.0 0.00 0.26 0.05 52 1016.5
20260501173034 54 79 6.0 14.0 0.00 0.10 0.08 45 1016.8
20260501173021 48 273 3.0 16.0 0.00 0.26 0.05 53 1016.5
20260501172507 48 273 7.0 16.0 0.00 0.26 0.05 52 1016.5
20260501172012 48 312 3.0 11.0 0.00 0.26 0.05 53 1016.5
20260501171526 55 65 8.0 13.0 0.00 0.10 0.08 45 1016.7
20260501171524 48 352 5.0 11.0 0.00 0.26 0.05 53 1016.5